Location: Buffign�court
(47.8126°N, 6.0176°E)
Time: 20:10:22
(UTC+00:00)

FALCON 9 DEB - Pass Details

Date: 16 June 2021
Orbit: 358 x 373 km, 53.0° (Epoch: 01 August)

Event Time Altitude Azimuth Distance (km) Brightness Sun altitude
Exits shadow 23:19:44 14° 262° (W) 1,186 5.3 -18.7°
Maximum altitude 23:22:17 54° 339° (NNW) 472 3.6 -18.7°
Drops below altitude 10° 23:25:21 10° 58° (ENE) 1,398 6.1 -18.8°
Sets 23:27:26 0° 63° (ENE) 2,249 7.1 -18.8°
